Volver al catálogo

STARLINK-37991

ActivoComunicacionesSSO
NORAD 100124·PAYLOAD·🇺🇸 United States

Lanzado Jul 21, 2026 desde Vandenberg Space Force Base

Loading…

Próximos Pases (próximas 24 horas)

TLE

ActualizadoSource: Space-Track

Época: Sep 14, 2026, 01:16 UTC

1 A0124U 26166Z   26257.05304177  .00000323  00000-0  30324-5 0  9992
2 A0124  97.2842 275.3194 0001181 146.6280 213.5060 15.75181328  8602

Sigue STARLINK-37991 en tiempo real con AllMySat

Download on the App Store